GW5308 Weather Reports


Display with metric or nautical units.
time (UTC)temp
F
wind
direction
speed
MPH
gust
MPH
rain 1hr
in
rain 24hr
in
rain mn
in
humidity
%
barometer
mb
20260905073519 74 0 0.0 0.0 0.00 0.14 0.01 100 1012.5
20260905073046 74 0 0.0 0.0 0.00 0.14 0.01 100 1012.5
20260905072520 74 0 0.0 0.0 0.00 0.14 0.01 100 1012.4
20260905072019 74 0 0.0 0.0 0.00 0.14 0.01 100 1012.4
20260905071548 74 0 0.0 0.0 0.00 0.14 0.01 100 1012.5
20260905071017 74 0 0.0 0.0 0.00 0.14 0.01 100 1012.5
20260905070519 74 0 0.0 0.0 0.00 0.14 0.01 100 1012.6
20260905070046 74 0 0.0 0.0 0.00 0.14 0.01 100 1012.8
20260905065524 75 0 0.0 0.0 0.00 0.14 0.01 100 1012.9
20260905065023 74 0 0.0 0.0 0.00 0.14 0.01 100 1013.0
20260905064539 75 0 0.0 0.0 0.00 0.14 0.01 100 1013.1
20260905064023 75 0 0.0 0.0 0.00 0.14 0.01 100 1013.1
20260905063523 75 0 0.0 0.0 0.00 0.14 0.01 100 1013.1
20260905063041 75 0 0.0 0.0 0.00 0.14 0.01 100 1013.2
20260905062520 75 0 0.0 0.0 0.00 0.14 0.01 100 1013.2
20260905062020 75 0 0.0 0.0 0.00 0.14 0.01 100 1013.3
20260905061601 75 0 0.0 0.0 0.00 0.14 0.01 100 1013.3
20260905061020 75 0 0.0 0.0 0.00 0.14 0.01 100 1013.4
20260905060517 75 0 0.0 0.0 0.00 0.14 0.01 100 1013.4
20260905060035 75 0 0.0 0.0 0.00 0.14 0.01 100 1013.4
20260905055519 75 0 0.0 0.0 0.00 0.14 0.01 100 1013.3
20260905055022 75 0 0.0 0.0 0.00 0.14 0.01 100 1013.5
20260905054539 75 0 0.0 0.0 0.00 0.14 0.01 100 1013.5
20260905054021 75 0 0.0 0.0 0.00 0.14 0.01 100 1013.6
20260905053522 75 0 0.0 0.0 0.00 0.14 0.01 100 1013.6
20260905053041 75 0 0.0 0.0 0.00 0.14 0.01 100 1013.5
20260905052520 75 0 0.0 0.0 0.00 0.14 0.01 100 1013.7
20260905052021 75 0 0.0 0.0 0.00 0.14 0.01 100 1013.7
20260905051543 75 0 0.0 0.0 0.00 0.14 0.01 100 1013.7
20260905051020 75 0 0.0 0.0 0.00 0.14 0.01 100 1013.7
20260905050523 75 0 0.0 0.0 0.00 0.14 0.01 100 1013.8
20260905050040 75 0 0.0 0.0 0.01 0.14 0.01 100 1013.8
20260905045516 75 0 0.0 0.0 0.01 0.14 0.01 100 1013.8
20260905045021 75 0 0.0 0.0 0.01 0.14 0.01 100 1013.8
20260905044539 75 0 0.0 0.0 0.01 0.14 0.01 100 1013.9
20260905044019 75 0 0.0 0.0 0.01 0.14 0.01 100 1013.9
20260905043521 75 0 0.0 0.0 0.01 0.14 0.01 100 1013.9
20260905043106 75 0 0.0 0.0 0.01 0.14 0.01 100 1013.9
20260905042524 75 0 0.0 0.0 0.01 0.14 0.01 100 1014.0
20260905042021 75 0 0.0 0.0 0.01 0.14 0.01 100 1013.9
20260905041540 75 0 0.0 0.0 0.01 0.14 0.01 100 1014.0
20260905041020 75 0 0.0 0.0 0.01 0.14 0.01 100 1014.1
20260905040520 75 0 0.0 0.0 0.01 0.14 0.01 100 1014.2
20260905040052 75 0 0.0 0.0 0.00 0.13 0.00 100 1014.1
20260905035519 75 0 0.0 0.0 0.00 0.13 0.13 100 1014.1
20260905035021 75 0 0.0 0.0 0.00 0.13 0.13 100 1014.1
20260905034537 75 0 0.0 0.0 0.00 0.13 0.13 100 1014.1
20260905034021 75 0 0.0 0.0 0.00 0.13 0.13 100 1014.2
20260905033520 75 0 0.0 0.0 0.00 0.13 0.13 100 1014.2
20260905033042 75 0 0.0 0.0 0.00 0.13 0.13 100 1014.3
20260905032523 75 0 0.0 0.0 0.00 0.13 0.13 100 1014.3
20260905032022 75 0 0.0 0.0 0.00 0.13 0.13 100 1014.2
20260905031537 75 0 0.0 0.0 0.00 0.13 0.13 100 1014.3
20260905031022 75 0 0.0 0.0 0.00 0.13 0.13 100 1014.4
20260905030519 75 0 0.0 0.0 0.00 0.13 0.13 100 1014.4
20260905030042 75 0 0.0 0.0 0.00 0.13 0.13 100 1014.3
20260905025519 75 0 0.0 0.0 0.00 0.13 0.13 100 1014.4
20260905025021 75 0 0.0 0.0 0.00 0.13 0.13 100 1014.5
20260905024541 75 0 0.0 0.0 0.00 0.13 0.13 100 1014.5
20260905024025 75 0 0.0 0.0 0.00 0.13 0.13 100 1014.5
20260905023519 75 0 0.0 0.0 0.00 0.13 0.13 100 1014.4
20260905023043 75 0 0.0 0.0 0.00 0.13 0.13 100 1014.5
20260905022526 75 0 0.0 0.0 0.00 0.13 0.13 100 1014.5
20260905022021 75 0 0.0 0.0 0.00 0.13 0.13 100 1014.5
20260905021547 75 0 0.0 0.0 0.00 0.13 0.13 100 1014.5
20260905021020 75 0 0.0 0.0 0.00 0.13 0.13 100 1014.5
20260905020519 75 0 0.0 0.0 0.00 0.13 0.13 100 1014.5
20260905020041 75 0 0.0 0.0 0.01 0.13 0.13 100 1014.5
20260905015526 75 0 0.0 0.0 0.01 0.13 0.13 100 1014.4
20260905015020 75 0 0.0 0.0 0.02 0.13 0.13 100 1014.5
20260905014536 75 0 0.0 0.0 0.02 0.13 0.13 100 1014.5
20260905014021 75 0 0.0 0.0 0.03 0.13 0.13 100 1014.5
20260905013524 75 0 0.0 0.0 0.04 0.13 0.13 100 1014.5
20260905013035 75 0 0.0 0.0 0.04 0.13 0.13 100 1014.4
20260905012520 75 0 0.0 0.0 0.05 0.13 0.13 100 1014.5
20260905012021 75 0 0.0 0.0 0.06 0.13 0.13 100 1014.4
20260905011541 75 0 0.0 0.0 0.07 0.13 0.13 100 1014.4
20260905011019 75 0 0.0 0.0 0.08 0.13 0.13 100 1014.3
20260905010520 76 0 0.0 0.0 0.08 0.13 0.13 100 1014.2
20260905010044 76 0 0.0 0.0 0.08 0.12 0.12 100 1014.2
20260905005520 76 0 0.0 0.0 0.10 0.12 0.12 100 1014.0
20260905005019 76 0 0.0 0.0 0.10 0.11 0.11 100 1014.1
20260905004538 76 0 0.0 0.0 0.10 0.11 0.11 100 1014.1
20260905004023 76 0 0.0 0.0 0.10 0.10 0.10 100 1014.1
20260905003522 76 0 0.0 0.0 0.09 0.09 0.09 100 1014.1
20260905003039 76 0 0.0 0.0 0.09 0.09 0.09 100 1014.1
20260905002520 76 0 0.0 0.0 0.08 0.08 0.08 100 1014.1
20260905002021 76 0 0.0 0.0 0.07 0.07 0.07 100 1014.3
20260905001540 76 0 0.0 0.0 0.06 0.06 0.06 100 1014.2
20260905001020 76 0 0.0 0.0 0.05 0.05 0.05 100 1014.0
20260905000521 76 0 0.0 0.0 0.05 0.05 0.05 100 1014.0
20260905000038 76 0 0.0 0.0 0.03 0.03 0.03 100 1013.8
20260904235522 76 0 0.0 0.0 0.02 0.02 0.02 100 1013.9
20260904235021 77 0 0.0 0.0 0.01 0.01 0.01 100 1014.1
20260904234543 77 0 0.0 0.0 0.01 0.01 0.01 100 1014.1
20260904234023 77 0 0.0 0.0 0.00 0.00 0.00 100 1014.1
20260904233522 77 0 0.0 0.0 0.00 0.00 0.00 100 1014.1
20260904233036 77 0 0.0 0.0 0.00 0.00 0.00 100 1014.2
20260904232520 77 0 0.0 0.0 0.00 0.00 0.00 100 1014.2
20260904232020 77 0 0.0 0.0 0.00 0.00 0.00 100 1014.2
20260904231542 77 0 0.0 0.0 0.00 0.00 0.00 100 1014.2
20260904231022 77 0 0.0 0.0 0.00 0.00 0.00 100 1014.1
20260904230519 77 0 0.0 0.0 0.00 0.00 0.00 100 1014.2
20260904230040 77 0 0.0 0.0 0.00 0.00 0.00 100 1014.3
20260904225522 77 0 0.0 0.0 0.00 0.00 0.00 100 1014.3
20260904225017 77 0 0.0 0.0 0.00 0.00 0.00 99 1014.4
20260904224542 77 0 0.0 0.0 0.00 0.00 0.00 99 1014.3
20260904224020 77 0 0.0 0.0 0.00 0.00 0.00 99 1014.4
20260904223516 78 0 0.0 0.0 0.00 0.00 0.00 99 1014.4
20260904223039 78 0 0.0 2.0 0.00 0.00 0.00 99 1014.2
20260904222519 78 0 0.0 2.0 0.00 0.00 0.00 98 1014.3
20260904222021 78 0 0.0 2.0 0.00 0.00 0.00 98 1014.4
20260904221538 78 0 0.0 0.0 0.00 0.00 0.00 97 1014.5
20260904221020 78 0 0.0 0.0 0.00 0.00 0.00 97 1013.8
20260904220520 78 0 0.0 0.0 0.00 0.00 0.00 97 1013.2
20260904220105 78 0 0.0 1.0 0.00 0.00 0.00 97 1012.9
20260904215518 79 0 0.0 1.0 0.00 0.00 0.00 96 1013.2
20260904215018 79 0 0.0 1.0 0.00 0.00 0.00 95 1012.8
20260904214540 80 242 0.0 1.0 0.00 0.00 0.00 94 1012.6
20260904214024 81 0 0.0 1.0 0.00 0.00 0.00 92 1012.5
20260904213521 81 0 0.0 1.0 0.00 0.00 0.00 90 1012.5
20260904213040 82 0 0.0 3.0 0.00 0.00 0.00 88 1012.4
20260904212522 84 0 0.0 9.0 0.00 0.00 0.00 85 1012.5
20260904212020 86 0 1.0 9.0 0.00 0.00 0.00 84 1012.9
20260904211547 88 0 0.0 1.0 0.00 0.00 0.00 88 1012.7
20260904211026 89 0 0.0 2.0 0.00 0.00 0.00 86 1012.4
20260904210520 90 0 0.0 2.0 0.00 0.00 0.00 84 1012.2
20260904210046 91 227 0.0 2.0 0.00 0.00 0.00 81 1012.2
20260904205520 92 276 0.0 1.0 0.00 0.00 0.00 79 1012.0
20260904205020 92 0 0.0 1.0 0.00 0.00 0.00 81 1012.1
20260904204540 91 0 0.0 1.0 0.00 0.00 0.00 81 1012.2
20260904204019 91 0 0.0 1.0 0.00 0.00 0.00 80 1012.2
20260904203519 92 0 0.0 1.0 0.00 0.00 0.00 79 1012.4
20260904203048 92 0 0.0 1.0 0.00 0.00 0.00 75 1012.4
20260904202520 93 0 0.0 1.0 0.00 0.00 0.00 79 1012.4
20260904202020 92 0 0.0 1.0 0.00 0.00 0.00 77 1012.4
20260904201537 92 195 0.0 1.0 0.00 0.00 0.00 76 1012.4
20260904201019 92 0 0.0 0.0 0.00 0.00 0.00 80 1012.4
20260904200521 92 0 0.0 0.0 0.00 0.00 0.00 77 1012.4
20260904200044 92 0 0.0 0.0 0.00 0.00 0.00 76 1012.5
20260904195520 93 0 0.0 1.0 0.00 0.00 0.00 75 1012.6
20260904195020 93 0 0.0 1.0 0.00 0.00 0.00 76 1012.7
20260904194545 94 240 0.0 1.0 0.00 0.00 0.00 74 1012.7
20260904194020 94 0 0.0 1.0 0.00 0.00 0.00 73 1012.7
20260904193522 94 0 0.0 2.0 0.00 0.00 0.00 73 1012.7
20260904193039 94 0 0.0 2.0 0.00 0.00 0.00 72 1012.8
20260904192520 94 194 0.0 2.0 0.00 0.00 0.00 71 1012.8
20260904192021 94 244 1.0 2.0 0.00 0.00 0.00 69 1012.9
20260904191545 95 0 0.0 0.0 0.00 0.00 0.00 70 1013.0
20260904191021 95 0 0.0 0.0 0.00 0.00 0.00 72 1013.0
20260904190521 95 0 0.0 0.0 0.00 0.00 0.00 72 1013.1
20260904190047 95 0 0.0 0.0 0.00 0.00 0.00 69 1013.1
20260904185519 95 0 0.0 1.0 0.00 0.00 0.00 70 1013.3
20260904185022 95 0 0.0 2.0 0.00 0.00 0.00 68 1013.4
20260904184549 95 241 0.0 2.0 0.00 0.00 0.00 69 1013.5
20260904184021 95 0 0.0 2.0 0.00 0.00 0.00 74 1013.5
20260904183521 95 245 0.0 2.0 0.00 0.00 0.00 70 1013.6
20260904183045 95 211 0.0 2.0 0.00 0.00 0.00 70 1013.7
20260904182520 95 0 0.0 2.0 0.00 0.00 0.00 71 1013.8
20260904182028 94 0 0.0 2.0 0.00 0.00 0.00 74 1013.8
20260904181540 94 240 0.0 2.0 0.00 0.00 0.00 73 1013.8
20260904181018 94 0 0.0 2.0 0.00 0.00 0.00 74 1013.8
20260904180518 94 190 1.0 2.0 0.00 0.00 0.00 74 1013.9
20260904180043 93 257 0.0 1.0 0.00 0.00 0.00 79 1014.0
20260904175519 92 0 0.0 1.0 0.00 0.00 0.00 83 1014.2
20260904175018 91 0 0.0 1.0 0.00 0.00 0.00 80 1014.2
20260904174543 91 0 0.0 0.0 0.00 0.00 0.00 81 1014.3
20260904174020 91 0 0.0 1.0 0.00 0.00 0.00 80 1014.4
20260904173521 92 0 0.0 1.0 0.00 0.00 0.00 78 1014.4
20260904173042 92 0 0.0 1.0 0.00 0.00 0.00 79 1014.4
20260904172518 92 0 0.0 1.0 0.00 0.00 0.00 78 1014.4
20260904172019 92 236 0.0 1.0 0.00 0.00 0.00 80 1014.4
20260904171543 91 0 0.0 0.0 0.00 0.00 0.00 79 1014.5
20260904171018 91 0 0.0 1.0 0.00 0.00 0.00 78 1014.5
20260904170519 90 0 0.0 1.0 0.00 0.00 0.00 79 1014.6
20260904170044 91 0 0.0 0.0 0.00 0.00 0.00 80 1014.7
20260904165521 92 0 0.0 0.0 0.00 0.00 0.00 78 1014.7
20260904165021 92 0 0.0 4.0 0.00 0.00 0.00 76 1014.9
20260904164538 93 0 0.0 4.0 0.00 0.00 0.00 75 1014.8
20260904164021 93 250 0.0 4.0 0.00 0.00 0.00 73 1014.9
20260904163522 93 217 0.0 4.0 0.00 0.00 0.00 73 1015.0
20260904163037 93 0 0.0 3.0 0.00 0.00 0.00 74 1015.1
20260904162523 91 0 0.0 3.0 0.00 0.00 0.00 77 1015.1
20260904162020 90 0 0.0 3.0 0.00 0.00 0.00 79 1014.9
20260904161539 91 0 0.0 1.0 0.00 0.00 0.00 78 1015.0
20260904161017 91 0 0.0 3.0 0.00 0.00 0.00 78 1015.1
20260904160521 92 0 0.0 3.0 0.00 0.00 0.00 78 1015.2
20260904160038 92 0 0.0 3.0 0.00 0.00 0.00 77 1015.2
20260904155527 92 218 0.0 2.0 0.00 0.05 0.00 79 1015.2
20260904155020 90 0 0.0 3.0 0.00 0.05 0.00 79 1015.2
20260904154544 91 0 0.0 3.0 0.00 0.05 0.00 79 1015.3
20260904154022 91 0 0.0 1.0 0.00 0.05 0.00 80 1015.4
20260904153520 91 0 0.0 1.0 0.00 0.05 0.00 78 1015.4
20260904153050 91 0 0.0 2.0 0.00 0.05 0.00 82 1015.4
20260904152523 89 0 0.0 2.0 0.00 0.05 0.00 83 1015.4
20260904152019 89 228 0.0 3.0 0.00 0.05 0.00 83 1015.4
20260904151539 89 0 0.0 3.0 0.00 0.05 0.00 84 1015.3
20260904151016 90 273 0.0 3.0 0.00 0.05 0.00 83 1015.4
20260904150517 90 258 0.0 2.0 0.00 0.05 0.00 84 1015.3
20260904150037 89 0 0.0 2.0 0.00 0.05 0.00 83 1015.4
20260904145520 89 0 0.0 0.0 0.00 0.55 0.00 84 1015.2
20260904145020 89 0 0.0 3.0 0.00 0.55 0.00 83 1015.1
20260904144542 88 0 0.0 3.0 0.00 0.55 0.00 85 1015.1
20260904144024 88 0 0.0 3.0 0.00 0.55 0.00 85 1015.3
20260904143519 88 248 0.0 2.0 0.00 0.55 0.00 84 1015.3
20260904143040 88 0 0.0 2.0 0.00 0.55 0.00 86 1015.4
20260904142521 87 70 0.0 1.0 0.00 0.55 0.00 86 1015.3
20260904142023 87 0 0.0 1.0 0.00 0.55 0.00 87 1015.1
20260904141540 87 0 0.0 1.0 0.00 0.55 0.00 87 1015.1
20260904141019 87 240 0.0 1.0 0.00 0.55 0.00 87 1014.9
20260904140517 87 0 0.0 1.0 0.00 0.55 0.00 88 1014.6
20260904140051 87 228 0.0 1.0 0.00 0.55 0.00 87 1014.6
20260904135521 87 0 0.0 0.0 0.00 0.55 0.00 88 1014.6
20260904135021 86 0 0.0 0.0 0.00 0.55 0.00 89 1014.7
20260904134540 85 0 0.0 0.0 0.00 0.55 0.00 92 1014.8
20260904134019 85 0 0.0 0.0 0.00 0.55 0.00 92 1014.7
20260904133521 84 0 0.0 0.0 0.00 0.55 0.00 92 1014.8
20260904133039 84 0 0.0 0.0 0.00 0.55 0.00 95 1014.7
20260904132520 83 0 0.0 0.0 0.00 0.55 0.00 97 1014.7
20260904132026 83 0 0.0 0.0 0.00 0.55 0.00 99 1014.7
20260904131540 81 0 0.0 1.0 0.00 0.55 0.00 100 1014.8
20260904131020 80 0 0.0 1.0 0.00 0.55 0.00 100 1014.7
20260904130522 80 0 0.0 1.0 0.00 0.55 0.00 100 1014.8
20260904130042 79 0 0.0 0.0 0.00 0.55 0.00 100 1014.7
20260904125516 79 0 0.0 0.0 0.00 0.55 0.00 100 1014.9
20260904125021 79 0 0.0 1.0 0.00 0.55 0.00 100 1014.9
20260904124535 78 0 0.0 1.0 0.00 0.55 0.00 100 1014.9
20260904124019 78 301 0.0 0.0 0.00 0.55 0.00 100 1015.0
20260904123519 78 0 0.0 0.0 0.00 0.55 0.00 100 1014.8
20260904123040 77 0 0.0 0.0 0.00 0.55 0.00 100 1014.8
20260904122522 77 0 0.0 0.0 0.00 0.55 0.00 100 1014.7
20260904122023 77 0 0.0 0.0 0.00 0.55 0.00 100 1014.7
20260904121541 76 0 0.0 0.0 0.00 0.55 0.00 100 1014.6
20260904121023 76 0 0.0 0.0 0.00 0.55 0.00 100 1014.5
20260904120520 75 0 0.0 0.0 0.00 0.55 0.00 100 1014.6
20260904120044 75 0 0.0 0.0 0.00 0.55 0.00 100 1014.5
20260904115522 75 0 0.0 0.0 0.00 0.55 0.00 100 1014.4
20260904115021 75 0 0.0 0.0 0.00 0.55 0.00 100 1014.4
20260904114542 75 0 0.0 0.0 0.00 0.55 0.00 100 1014.4
20260904114020 75 0 0.0 0.0 0.00 0.55 0.00 100 1014.3
20260904113522 75 0 0.0 0.0 0.00 0.55 0.00 100 1014.3
20260904113038 75 0 0.0 0.0 0.00 0.55 0.00 100 1014.3
20260904112520 75 0 0.0 0.0 0.00 0.55 0.00 100 1014.2
20260904112021 75 0 0.0 0.0 0.00 0.55 0.00 100 1014.2
20260904111540 75 0 0.0 0.0 0.00 0.55 0.00 100 1014.0
20260904111019 75 0 0.0 0.0 0.00 0.55 0.00 100 1014.0
20260904110520 75 0 0.0 0.0 0.00 0.55 0.00 100 1013.9
20260904110043 75 0 0.0 0.0 0.00 0.55 0.00 100 1013.8
20260904105521 75 0 0.0 0.0 0.00 0.55 0.00 100 1013.8
20260904105020 75 0 0.0 0.0 0.00 0.55 0.00 100 1013.6
20260904104536 75 0 0.0 0.0 0.00 0.55 0.00 100 1013.6
20260904104023 75 0 0.0 0.0 0.00 0.55 0.00 100 1013.6
20260904103520 75 0 0.0 0.0 0.00 0.55 0.00 100 1013.6
20260904103036 75 0 0.0 0.0 0.00 0.55 0.00 100 1013.5
20260904102520 75 0 0.0 0.0 0.00 0.55 0.00 100 1013.5
20260904102020 75 0 0.0 0.0 0.00 0.55 0.00 100 1013.5
20260904101536 75 0 0.0 0.0 0.00 0.55 0.00 100 1013.4
20260904101020 75 0 0.0 0.0 0.00 0.55 0.00 100 1013.3
20260904100519 75 0 0.0 0.0 0.00 0.55 0.00 100 1013.4
20260904100042 75 0 0.0 0.0 0.00 0.55 0.00 100 1013.3
20260904095519 75 0 0.0 0.0 0.00 0.55 0.00 100 1013.3
20260904095018 75 0 0.0 0.0 0.00 0.55 0.00 100 1013.3
20260904094544 75 0 0.0 0.0 0.00 0.55 0.00 100 1013.3
20260904094020 75 0 0.0 0.0 0.00 0.55 0.00 100 1013.2
20260904093521 75 0 0.0 0.0 0.00 0.55 0.00 100 1013.2
20260904093045 75 0 0.0 0.0 0.00 0.55 0.00 100 1013.2
20260904092519 75 0 0.0 0.0 0.00 0.55 0.00 100 1013.2
20260904092018 75 0 0.0 0.0 0.00 0.55 0.00 100 1013.1
20260904091538 76 0 0.0 0.0 0.00 0.55 0.00 100 1013.2
20260904091023 76 0 0.0 0.0 0.00 0.55 0.00 100 1013.1
20260904090519 76 0 0.0 0.0 0.00 0.55 0.00 100 1013.1
20260904090038 76 0 0.0 0.0 0.00 0.55 0.00 100 1013.1
20260904085520 75 0 0.0 0.0 0.00 0.55 0.00 100 1013.1
20260904085020 75 0 0.0 0.0 0.00 0.55 0.00 100 1013.1
20260904084538 76 0 0.0 0.0 0.00 0.55 0.00 100 1013.2
20260904084018 76 0 0.0 0.0 0.00 0.55 0.00 100 1013.2
20260904083519 76 0 0.0 0.0 0.00 0.55 0.00 100 1013.2
20260904083039 76 0 0.0 0.0 0.00 0.55 0.00 100 1013.3
20260904082518 76 0 0.0 0.0 0.00 0.55 0.00 100 1013.3
20260904082018 76 0 0.0 0.0 0.00 0.55 0.00 100 1013.2
20260904081538 76 0 0.0 0.0 0.00 0.55 0.00 100 1013.3
20260904081021 76 0 0.0 0.0 0.00 0.55 0.00 100 1013.3
20260904080522 76 0 0.0 0.0 0.00 0.55 0.00 100 1013.1
20260904080035 76 0 0.0 0.0 0.00 0.55 0.00 100 1013.1
20260904075525 76 0 0.0 0.0 0.00 0.55 0.00 100 1013.1
20260904075020 76 0 0.0 0.0 0.00 0.55 0.00 100 1013.0
20260904074538 76 0 0.0 0.0 0.00 0.55 0.00 100 1013.0
20260904074022 76 0 0.0 0.0 0.00 0.55 0.00 100 1012.8